Location: Capelle
(50.3413°N, 1.9974°E)
Time: 23:08:29
(UTC+00:00)

ATLAS 3B R/B - Pass Details

Date: 12 January 2026
Orbit: 936 x 1258 km, 63.8° (Epoch: 7 February)

Event Time Altitude Azimuth Distance (km) Brightness Sun altitude
Rises 19:36:37 0° 290° (WNW) 4,183 6.8 -31.6°
Reaches altitude 10° 19:39:51 10° 301° (WNW) 3,236 5.9 -32.1°
Maximum altitude 19:46:39 30° 1° (N) 2,082 4.2 -33.2°
Enters shadow 19:47:20 30° 10° (N) 2,096 4.1 -33.3°
